WXM80 ListenWXM80 Stop

You find our weather info also at:

UK Metoffice

WeatherCloud

Weather Underground

Northeastern Weather Network

AWEKAS

Citizen Weather Observer Program (CWOP)

HAMweather, WeatherForYou, PWS Weather


Weather Underground History page Text

Daily Summary for June 1, 2016 Units:  English    Metric   Both
« Previous Day
Next Day »
Daily Weekly Monthly Yearly Custom
  High: Low: Average:
Temperature: 81.5 °F 61.7 °F 70.6 °F
Dew Point: 65.9 °F 56.4 °F 60.9 °F
Humidity: 96 % 49 % 73 %
Wind Speed: 6.2 mph 0.0 mph 1.2 mph
Wind Gust: 11.5 mph - -
Wind:- - East
Pressure: 30.14 in 29.96 in -
Precipitation: 0.00 in    
Historical Graphs
 
 
Tabular Data for June 1, 2016
Time Temperature Dew Point Pressure Wind Wind Speed Wind Gust Humidity Rainfall Rate (Hourly)
00:00 68.9 °F 65.2 °F 29.96 in North 1.1 mph 2.3 mph 88 % 0.00 in
00:05 68.6 °F 64.9 °F 29.96 in North 1.7 mph 3.5 mph 88 % 0.00 in
00:10 68.4 °F 64.7 °F 29.97 in NNW 0.6 mph 2.3 mph 88 % 0.00 in
00:15 68.1 °F 64.4 °F 29.96 in Calm   1.2 mph 88 % 0.00 in
00:20 68.0 °F 64.6 °F 29.96 in NNE 0.1 mph 1.2 mph 89 % 0.00 in
00:26 67.9 °F 64.5 °F 29.96 in Calm     89 % 0.00 in
00:31 67.7 °F 64.3 °F 29.96 in NNE 0.1 mph 1.2 mph 89 % 0.00 in
00:36 67.6 °F 64.6 °F 29.96 in Calm     90 % 0.00 in
00:41 67.4 °F 64.4 °F 29.97 in NNE 1.2 mph 2.3 mph 90 % 0.00 in
00:46 67.3 °F 63.9 °F 29.97 in Calm     89 % 0.00 in
00:51 67.2 °F 63.8 °F 29.97 in Calm     89 % 0.00 in
00:56 67.1 °F 63.7 °F 29.97 in Calm     89 % 0.00 in
01:01 67.0 °F 64.0 °F 29.97 in NNE 0.2 mph 1.2 mph 90 % 0.00 in
01:06 66.9 °F 63.9 °F 29.96 in Calm     90 % 0.00 in
01:11 66.8 °F 63.8 °F 29.97 in Calm     90 % 0.00 in
01:17 66.7 °F 64.0 °F 29.97 in NNE 0.7 mph 2.3 mph 91 % 0.00 in
01:22 66.6 °F 63.9 °F 29.97 in Calm     91 % 0.00 in
01:27 66.5 °F 63.8 °F 29.97 in Calm     91 % 0.00 in
01:32 66.3 °F 63.6 °F 29.97 in NNE 0.3 mph 1.2 mph 91 % 0.00 in
01:37 66.2 °F 63.5 °F 29.97 in Calm     91 % 0.00 in
01:42 66.1 °F 63.4 °F 29.97 in Calm     91 % 0.00 in
01:47 66.0 °F 63.3 °F 29.97 in Calm     91 % 0.00 in
01:52 65.8 °F 63.1 °F 29.97 in Calm     91 % 0.00 in
01:57 65.7 °F 63.0 °F 29.97 in Calm     91 % 0.00 in
02:03 65.6 °F 62.9 °F 29.97 in Calm     91 % 0.00 in
02:08 65.5 °F 62.8 °F 29.97 in Calm     91 % 0.00 in
02:13 65.4 °F 62.7 °F 29.96 in Calm     91 % 0.00 in
02:18 65.3 °F 62.6 °F 29.97 in Calm     91 % 0.00 in
02:23 65.2 °F 62.5 °F 29.97 in Calm     91 % 0.00 in
02:28 65.0 °F 62.3 °F 29.97 in Calm     91 % 0.00 in
02:33 64.9 °F 62.2 °F 29.97 in Calm     91 % 0.00 in
02:38 64.8 °F 62.1 °F 29.97 in Calm     91 % 0.00 in
02:43 64.7 °F 62.0 °F 29.97 in Calm     91 % 0.00 in
02:48 64.7 °F 62.3 °F 29.97 in Calm     92 % 0.00 in
02:54 64.5 °F 62.1 °F 29.98 in Calm     92 % 0.00 in
02:59 64.5 °F 62.1 °F 29.98 in Calm     92 % 0.00 in
03:04 64.4 °F 62.0 °F 29.98 in Calm     92 % 0.00 in
03:09 64.4 °F 62.3 °F 29.98 in Calm     93 % 0.00 in
03:14 64.3 °F 61.9 °F 29.98 in Calm   1.2 mph 92 % 0.00 in
03:19 64.2 °F 62.1 °F 29.98 in Calm     93 % 0.00 in
03:24 64.1 °F 62.0 °F 29.98 in Calm     93 % 0.00 in
03:29 64.1 °F 62.0 °F 29.98 in Calm     93 % 0.00 in
03:34 64.0 °F 61.9 °F 29.99 in Calm     93 % 0.00 in
03:39 64.0 °F 61.9 °F 29.98 in Calm     93 % 0.00 in
03:45 63.9 °F 61.8 °F 29.98 in Calm     93 % 0.00 in
03:55 63.8 °F 61.7 °F 29.98 in Calm     93 % 0.00 in
04:00 63.7 °F 61.6 °F 29.99 in Calm     93 % 0.00 in
04:05 63.6 °F 61.5 °F 29.99 in Calm     93 % 0.00 in
04:10 63.5 °F 61.4 °F 29.99 in Calm     93 % 0.00 in
04:15 63.4 °F 61.3 °F 29.99 in Calm     93 % 0.00 in
04:20 63.3 °F 61.2 °F 29.99 in Calm     93 % 0.00 in
04:25 63.2 °F 61.1 °F 29.99 in Calm     93 % 0.00 in
04:30 63.2 °F 61.1 °F 29.99 in Calm     93 % 0.00 in
04:36 63.1 °F 61.0 °F 29.99 in Calm     93 % 0.00 in
04:41 63.0 °F 60.9 °F 29.99 in Calm     93 % 0.00 in
04:46 63.0 °F 60.9 °F 30.00 in Calm     93 % 0.00 in
04:51 62.9 °F 60.8 °F 29.99 in Calm     93 % 0.00 in
04:56 62.8 °F 60.7 °F 30.00 in Calm     93 % 0.00 in
05:01 62.7 °F 60.6 °F 30.00 in Calm     93 % 0.00 in
05:06 62.6 °F 60.5 °F 30.01 in Calm     93 % 0.00 in
05:11 62.5 °F 60.4 °F 30.01 in Calm     93 % 0.00 in
05:16 62.4 °F 60.3 °F 30.01 in Calm     93 % 0.00 in
05:21 62.3 °F 60.2 °F 30.01 in Calm     93 % 0.00 in
05:27 62.2 °F 60.2 °F 30.01 in Calm     93 % 0.00 in
05:32 62.1 °F 60.1 °F 30.02 in Calm     93 % 0.00 in
05:37 62.1 °F 60.1 °F 30.02 in Calm     93 % 0.00 in
05:42 62.0 °F 60.0 °F 30.02 in Calm     93 % 0.00 in
05:47 61.9 °F 59.9 °F 30.02 in Calm     93 % 0.00 in
05:52 61.8 °F 60.1 °F 30.02 in Calm     94 % 0.00 in
05:57 61.8 °F 59.8 °F 30.02 in Calm     93 % 0.00 in
06:02 61.7 °F 60.0 °F 30.02 in Calm     94 % 0.00 in
06:07 61.7 °F 60.0 °F 30.02 in Calm     94 % 0.00 in
06:12 61.7 °F 60.0 °F 30.02 in Calm     94 % 0.00 in
06:18 61.8 °F 60.1 °F 30.03 in Calm     94 % 0.00 in
06:23 61.8 °F 60.1 °F 30.03 in Calm     94 % 0.00 in
06:28 61.9 °F 60.2 °F 30.03 in Calm     94 % 0.00 in
06:33 62.0 °F 60.6 °F 30.03 in Calm     95 % 0.00 in
06:38 62.2 °F 60.8 °F 30.03 in Calm     95 % 0.00 in
06:48 62.5 °F 61.3 °F 30.04 in Calm     96 % 0.00 in
06:53 62.7 °F 61.5 °F 30.04 in Calm   1.2 mph 96 % 0.00 in
06:58 63.0 °F 61.8 °F 30.04 in NNE 0.3 mph 2.3 mph 96 % 0.00 in
07:03 63.4 °F 62.2 °F 30.04 in NNE 0.1 mph 1.2 mph 96 % 0.00 in
07:09 63.7 °F 62.5 °F 30.04 in NNE 1.2 mph 2.3 mph 96 % 0.00 in
07:14 63.9 °F 62.7 °F 30.05 in Calm   2.3 mph 96 % 0.00 in
07:19 64.1 °F 62.6 °F 30.05 in NNE 0.5 mph 2.3 mph 95 % 0.00 in
07:24 64.4 °F 62.0 °F 30.05 in North 2.9 mph 4.6 mph 92 % 0.00 in
07:29 64.9 °F 61.6 °F 30.05 in NNE 2.6 mph 3.5 mph 89 % 0.00 in
07:34 65.5 °F 60.5 °F 30.06 in NNE 2.7 mph 4.0 mph 84 % 0.00 in
07:39 66.0 °F 60.3 °F 30.06 in NNE 0.6 mph 2.3 mph 82 % 0.00 in
07:44 66.5 °F 60.8 °F 30.06 in NNE 1.2 mph 3.5 mph 82 % 0.00 in
07:49 66.7 °F 60.3 °F 30.06 in NNE 3.7 mph 3.7 mph 80 % 0.00 in
07:54 67.0 °F 60.6 °F 30.06 in NNE 2.7 mph 4.0 mph 80 % 0.00 in
08:00 67.3 °F 59.5 °F 30.06 in NNE 3.1 mph 4.6 mph 76 % 0.00 in
08:05 67.5 °F 59.3 °F 30.06 in NNE 2.6 mph 4.0 mph 75 % 0.00 in
08:10 67.9 °F 59.7 °F 30.06 in NNE 0.3 mph 3.5 mph 75 % 0.00 in
08:15 68.1 °F 58.7 °F 30.07 in NNE 0.4 mph 2.3 mph 72 % 0.00 in
08:20 68.4 °F 59.4 °F 30.07 in NNE 1.9 mph 3.5 mph 73 % 0.00 in
08:25 68.6 °F 59.2 °F 30.07 in NE 1.3 mph 3.5 mph 72 % 0.00 in
08:30 68.8 °F 59.4 °F 30.07 in NNE 2.5 mph 3.5 mph 72 % 0.00 in
08:40 69.1 °F 58.9 °F 30.07 in NE 3.2 mph 3.5 mph 70 % 0.00 in
08:45 69.2 °F 57.8 °F 30.07 in NE 1.3 mph 4.6 mph 67 % 0.00 in
08:51 69.4 °F 58.4 °F 30.08 in NE 0.2 mph 2.3 mph 68 % 0.00 in
08:56 69.5 °F 57.6 °F 30.07 in NE 0.8 mph 2.3 mph 66 % 0.00 in
09:01 69.6 °F 57.7 °F 30.07 in ENE 3.0 mph 4.6 mph 66 % 0.00 in
09:06 69.8 °F 58.8 °F 30.07 in ENE 1.4 mph 3.5 mph 68 % 0.00 in
09:11 69.8 °F 57.5 °F 30.07 in ENE 2.3 mph 3.5 mph 65 % 0.00 in
09:16 69.8 °F 58.3 °F 30.07 in North 0.9 mph 1.2 mph 67 % 0.00 in
09:21 69.9 °F 58.9 °F 30.07 in NE 1.8 mph 3.5 mph 68 % 0.00 in
09:26 69.9 °F 58.4 °F 30.07 in NE 0.5 mph 3.5 mph 67 % 0.00 in
09:31 70.1 °F 59.0 °F 30.07 in NE 0.1 mph 1.2 mph 68 % 0.00 in
09:36 70.4 °F 58.9 °F 30.07 in NE 0.4 mph 1.2 mph 67 % 0.00 in
09:42 70.8 °F 58.4 °F 30.08 in Calm   1.2 mph 65 % 0.00 in
09:47 71.3 °F 58.1 °F 30.07 in NE 2.2 mph 4.6 mph 63 % 0.00 in
09:57 72.9 °F 60.4 °F 30.08 in Calm   1.2 mph 65 % 0.00 in
10:02 73.9 °F 60.1 °F 30.08 in NE 0.6 mph 2.3 mph 62 % 0.00 in
10:07 74.7 °F 58.0 °F 30.08 in NE 1.1 mph 5.8 mph 56 % 0.00 in
10:12 75.4 °F 60.1 °F 30.08 in NE 0.9 mph 1.2 mph 59 % 0.00 in
10:13 75.6 °F 59.8 °F 30.08 in ENE 1.8 mph 3.5 mph 58 % 0.00 in
10:18 76.4 °F 61.0 °F 30.08 in ENE 1.2 mph 3.5 mph 59 % 0.00 in
10:23 77.1 °F 60.7 °F 30.08 in ENE 0.8 mph 2.3 mph 57 % 0.00 in
10:29 77.8 °F 60.3 °F 30.08 in NE 1.8 mph 7.0 mph 55 % 0.00 in
10:34 77.9 °F 60.9 °F 30.08 in ENE 0.8 mph 8.1 mph 56 % 0.00 in
10:39 78.2 °F 61.7 °F 30.08 in NE 0.3 mph 3.5 mph 57 % 0.00 in
10:44 78.5 °F 61.5 °F 30.08 in NE 0.3 mph 1.2 mph 56 % 0.00 in
10:49 78.2 °F 59.1 °F 30.08 in ENE 2.5 mph 4.6 mph 52 % 0.00 in
10:54 77.8 °F 59.3 °F 30.08 in ENE 1.8 mph 4.6 mph 53 % 0.00 in
10:59 77.9 °F 59.9 °F 30.09 in NE 2.9 mph 5.8 mph 54 % 0.00 in
11:04 78.0 °F 60.5 °F 30.09 in NE 3.7 mph 4.6 mph 55 % 0.00 in
11:09 77.8 °F 60.8 °F 30.09 in ENE 3.6 mph 8.1 mph 56 % 0.00 in
11:15 77.8 °F 60.3 °F 30.08 in NE 4.6 mph 5.0 mph 55 % 0.00 in
11:20 77.6 °F 61.2 °F 30.08 in ENE 2.9 mph 4.6 mph 57 % 0.00 in
11:25 77.4 °F 60.5 °F 30.08 in ENE 2.9 mph 8.1 mph 56 % 0.00 in
11:31 77.2 °F 61.3 °F 30.09 in ENE 2.1 mph 3.5 mph 58 % 0.00 in
11:36 77.2 °F 61.8 °F 30.09 in ENE 2.9 mph 5.0 mph 59 % 0.00 in
11:46 77.0 °F 61.6 °F 30.08 in ENE 2.2 mph 4.6 mph 59 % 0.00 in
11:51 76.8 °F 61.4 °F 30.08 in ENE 2.8 mph 6.0 mph 59 % 0.00 in
11:56 76.7 °F 61.3 °F 30.08 in ENE 2.0 mph 4.6 mph 59 % 0.00 in
12:01 76.7 °F 61.3 °F 30.08 in ENE 3.9 mph 6.9 mph 59 % 0.00 in
12:06 76.7 °F 61.3 °F 30.08 in NNE 1.9 mph 3.5 mph 59 % 0.00 in
12:11 76.6 °F 60.7 °F 30.08 in East 2.4 mph 4.6 mph 58 % 0.00 in
12:16 76.7 °F 61.8 °F 30.08 in ENE 2.3 mph 4.0 mph 60 % 0.00 in
12:22 77.3 °F 63.3 °F 30.08 in NE 1.2 mph 3.5 mph 62 % 0.00 in
12:27 77.9 °F 62.9 °F 30.08 in ENE 3.9 mph 6.9 mph 60 % 0.00 in
12:32 77.9 °F 61.4 °F 30.08 in ENE 4.0 mph 6.9 mph 57 % 0.00 in
12:37 77.6 °F 61.7 °F 30.08 in East 2.5 mph 5.8 mph 58 % 0.00 in
12:42 77.9 °F 61.9 °F 30.08 in ENE 2.1 mph 3.5 mph 58 % 0.00 in
12:47 78.0 °F 61.0 °F 30.08 in ENE 6.2 mph 11.5 mph 56 % 0.00 in
12:52 77.3 °F 62.3 °F 30.08 in ENE 2.1 mph 3.5 mph 60 % 0.00 in
12:57 77.1 °F 63.1 °F 30.08 in East 3.4 mph 4.6 mph 62 % 0.00 in
13:02 76.9 °F 62.0 °F 30.08 in ENE 2.9 mph 4.6 mph 60 % 0.00 in
13:13 77.4 °F 62.9 °F 30.08 in ENE 0.9 mph 5.8 mph 61 % 0.00 in
13:18 77.5 °F 63.9 °F 30.08 in ENE 0.7 mph 2.3 mph 63 % 0.00 in
13:23 77.7 °F 64.5 °F 30.08 in ENE 0.7 mph 1.2 mph 64 % 0.00 in
13:28 78.3 °F 65.6 °F 30.07 in ENE 1.2 mph 3.0 mph 65 % 0.00 in
13:33 78.8 °F 64.7 °F 30.07 in ENE 1.0 mph 3.0 mph 62 % 0.00 in
13:38 79.3 °F 64.2 °F 30.07 in ENE 2.3 mph 5.8 mph 60 % 0.00 in
13:43 79.6 °F 64.0 °F 30.08 in ENE 0.7 mph 5.8 mph 59 % 0.00 in
13:53 78.8 °F 62.3 °F 30.08 in ENE 2.4 mph 6.0 mph 57 % 0.00 in
13:58 78.4 °F 63.4 °F 30.07 in ENE 1.5 mph 3.0 mph 60 % 0.00 in
14:04 78.1 °F 63.1 °F 30.08 in NE 1.5 mph 4.0 mph 60 % 0.00 in
14:09 77.8 °F 62.8 °F 30.07 in North 2.2 mph 8.1 mph 60 % 0.00 in
14:14 77.6 °F 63.5 °F 30.07 in ENE 2.5 mph 8.1 mph 62 % 0.00 in
14:19 77.4 °F 61.9 °F 30.07 in NE 3.7 mph 8.1 mph 59 % 0.00 in
14:24 77.0 °F 62.5 °F 30.07 in ENE 2.3 mph 4.6 mph 61 % 0.00 in
14:29 77.1 °F 63.5 °F 30.07 in ENE 2.3 mph 4.6 mph 63 % 0.00 in
14:34 77.4 °F 64.3 °F 30.07 in NE 0.9 mph 2.3 mph 64 % 0.00 in
14:39 77.9 °F 63.8 °F 30.07 in ENE 2.2 mph 3.5 mph 62 % 0.00 in
14:44 78.3 °F 63.7 °F 30.07 in NE 1.8 mph 6.0 mph 61 % 0.00 in
14:49 78.4 °F 64.3 °F 30.07 in ENE 1.1 mph 3.5 mph 62 % 0.00 in
14:55 78.5 °F 63.5 °F 30.07 in Calm   1.2 mph 60 % 0.00 in
15:00 78.3 °F 64.2 °F 30.07 in ENE 0.6 mph 2.3 mph 62 % 0.00 in
15:05 78.2 °F 63.2 °F 30.07 in NE 2.4 mph 6.9 mph 60 % 0.00 in
15:10 78.0 °F 63.9 °F 30.07 in NE 2.1 mph 4.6 mph 62 % 0.00 in
15:15 77.8 °F 63.3 °F 30.07 in NE 1.6 mph 3.5 mph 61 % 0.00 in
15:20 77.6 °F 63.5 °F 30.07 in ENE 1.7 mph 3.5 mph 62 % 0.00 in
15:25 77.6 °F 64.0 °F 30.07 in NNE 1.8 mph 4.6 mph 63 % 0.00 in
15:30 77.6 °F 63.5 °F 30.07 in ENE 2.2 mph 4.6 mph 62 % 0.00 in
15:35 77.6 °F 64.0 °F 30.07 in NE 2.1 mph 3.5 mph 63 % 0.00 in
15:40 77.5 °F 63.9 °F 30.07 in ENE 1.5 mph 3.5 mph 63 % 0.00 in
15:46 77.7 °F 65.0 °F 30.07 in NE 1.6 mph 3.5 mph 65 % 0.00 in
15:51 78.0 °F 64.8 °F 30.07 in NE 2.5 mph 3.5 mph 64 % 0.00 in
15:56 78.5 °F 65.8 °F 30.07 in ESE 1.1 mph 2.3 mph 65 % 0.00 in
16:01 78.9 °F 64.8 °F 30.07 in ENE 1.4 mph 3.5 mph 62 % 0.00 in
16:06 79.2 °F 64.1 °F 30.07 in NE 2.0 mph 3.5 mph 60 % 0.00 in
16:11 79.7 °F 65.1 °F 30.07 in NE 0.5 mph 2.3 mph 61 % 0.00 in
16:16 80.2 °F 64.6 °F 30.06 in ENE 2.4 mph 3.5 mph 59 % 0.00 in
16:21 80.6 °F 65.9 °F 30.06 in NE 0.1 mph 3.5 mph 61 % 0.00 in
16:26 81.1 °F 61.8 °F 30.07 in SE 3.4 mph 5.8 mph 52 % 0.00 in
16:31 81.5 °F 62.2 °F 30.07 in SE 3.5 mph 6.9 mph 52 % 0.00 in
16:37 81.3 °F 60.3 °F 30.06 in SSE 5.7 mph 11.5 mph 49 % 0.00 in
16:42 80.8 °F 61.0 °F 30.07 in SE 5.2 mph 6.9 mph 51 % 0.00 in
16:47 80.5 °F 61.8 °F 30.07 in SSE 3.4 mph 8.0 mph 53 % 0.00 in
16:52 80.0 °F 60.8 °F 30.07 in ESE 2.5 mph 5.8 mph 52 % 0.00 in
17:00 79.6 °F 61.0 °F 30.07 in SE 4.2 mph 7.0 mph 53 % 0.00 in
17:05 79.7 °F 62.1 °F 30.07 in SE 2.9 mph 3.5 mph 55 % 0.00 in
17:10 79.8 °F 61.1 °F 30.07 in ESE 2.3 mph 5.8 mph 53 % 0.00 in
17:16 79.8 °F 61.1 °F 30.07 in SSE 1.8 mph 4.6 mph 53 % 0.00 in
17:26 80.0 °F 61.9 °F 30.06 in ESE 1.6 mph 3.5 mph 54 % 0.00 in
17:31 79.8 °F 60.6 °F 30.07 in ESE 5.0 mph 6.9 mph 52 % 0.00 in
17:36 79.8 °F 61.1 °F 30.07 in SE 2.5 mph 6.0 mph 53 % 0.00 in
17:41 79.8 °F 61.1 °F 30.07 in SE 4.2 mph 6.0 mph 53 % 0.00 in
17:46 79.6 °F 62.0 °F 30.07 in SE 1.1 mph 2.3 mph 55 % 0.00 in
17:56 79.1 °F 62.1 °F 30.07 in SE 2.2 mph 3.0 mph 56 % 0.00 in
18:01 79.0 °F 62.0 °F 30.06 in SE 1.8 mph 3.5 mph 56 % 0.00 in
18:07 78.7 °F 61.2 °F 30.06 in ESE 1.2 mph 3.5 mph 55 % 0.00 in
18:12 78.6 °F 61.1 °F 30.06 in SE 0.4 mph 2.0 mph 55 % 0.00 in
18:17 78.4 °F 60.9 °F 30.07 in SE 2.3 mph 2.3 mph 55 % 0.00 in
18:22 78.3 °F 60.3 °F 30.07 in SSE 5.5 mph 9.2 mph 54 % 0.00 in
18:27 78.3 °F 60.8 °F 30.07 in SE 1.0 mph 3.0 mph 55 % 0.00 in
18:32 78.0 °F 60.0 °F 30.07 in SE 2.1 mph 3.5 mph 54 % 0.00 in
18:37 77.6 °F 59.1 °F 30.07 in ESE 2.8 mph 6.9 mph 53 % 0.00 in
18:42 77.3 °F 58.8 °F 30.08 in SE 2.0 mph 5.8 mph 53 % 0.00 in
18:47 76.8 °F 58.4 °F 30.08 in ESE 1.2 mph 3.5 mph 53 % 0.00 in
18:52 76.3 °F 58.9 °F 30.08 in SE 1.0 mph 3.5 mph 55 % 0.00 in
18:57 76.0 °F 58.7 °F 30.08 in ESE 0.4 mph 2.3 mph 55 % 0.00 in
19:05 75.5 °F 59.2 °F 30.08 in SE 1.0 mph 2.0 mph 57 % 0.00 in
19:17 74.7 °F 60.4 °F 30.08 in SE 1.1 mph 2.3 mph 61 % 0.00 in
19:22 74.4 °F 60.5 °F 30.09 in SE 1.0 mph 2.3 mph 62 % 0.00 in
19:27 74.1 °F 60.2 °F 30.08 in SE 1.0 mph 4.0 mph 62 % 0.00 in
19:33 73.8 °F 59.5 °F 30.09 in SE 0.7 mph 2.3 mph 61 % 0.00 in
19:38 73.4 °F 59.1 °F 30.09 in SE 0.6 mph 2.3 mph 61 % 0.00 in
19:43 73.0 °F 59.2 °F 30.09 in SE 0.2 mph 1.2 mph 62 % 0.00 in
19:48 72.6 °F 59.3 °F 30.09 in SE 0.1 mph 1.2 mph 63 % 0.00 in
19:53 72.2 °F 58.9 °F 30.09 in SE 0.8 mph 1.2 mph 63 % 0.00 in
19:58 71.8 °F 58.5 °F 30.10 in SE 0.6 mph 1.2 mph 63 % 0.00 in
20:03 71.4 °F 58.6 °F 30.10 in SE 0.9 mph 2.3 mph 64 % 0.00 in
20:08 71.0 °F 58.6 °F 30.10 in SE 0.7 mph 2.3 mph 65 % 0.00 in
20:13 70.4 °F 58.5 °F 30.10 in SE 1.4 mph 2.3 mph 66 % 0.00 in
20:18 70.0 °F 58.1 °F 30.10 in SE 1.6 mph 2.3 mph 66 % 0.00 in
20:24 69.5 °F 58.5 °F 30.10 in SE 0.6 mph 1.2 mph 68 % 0.00 in
20:29 69.2 °F 58.6 °F 30.11 in SE 0.9 mph 2.3 mph 69 % 0.00 in
20:34 68.8 °F 57.8 °F 30.11 in SE 0.7 mph 2.3 mph 68 % 0.00 in
20:39 68.6 °F 58.4 °F 30.10 in SE 0.5 mph 1.2 mph 70 % 0.00 in
20:44 68.2 °F 58.0 °F 30.10 in ESE 1.7 mph 4.6 mph 70 % 0.00 in
20:49 67.9 °F 56.9 °F 30.11 in ESE 1.5 mph 3.5 mph 68 % 0.00 in
20:54 67.8 °F 56.9 °F 30.10 in ESE 1.8 mph 3.5 mph 68 % 0.00 in
20:59 67.6 °F 56.7 °F 30.11 in ESE 1.5 mph 3.5 mph 68 % 0.00 in
21:04 67.4 °F 56.9 °F 30.11 in SE 0.9 mph 3.5 mph 69 % 0.00 in
21:09 67.2 °F 56.7 °F 30.11 in ESE 2.4 mph 4.6 mph 69 % 0.00 in
21:15 67.1 °F 56.6 °F 30.11 in ESE 2.6 mph 3.5 mph 69 % 0.00 in
21:20 66.9 °F 56.4 °F 30.11 in East 3.0 mph 4.6 mph 69 % 0.00 in
21:25 66.8 °F 56.7 °F 30.12 in East 1.6 mph 4.6 mph 70 % 0.00 in
21:30 66.7 °F 56.6 °F 30.11 in East 3.1 mph 5.0 mph 70 % 0.00 in
21:35 66.5 °F 56.4 °F 30.11 in ESE 3.1 mph 5.0 mph 70 % 0.00 in
21:40 66.5 °F 56.8 °F 30.12 in ESE 1.8 mph 3.5 mph 71 % 0.00 in
21:45 66.3 °F 57.0 °F 30.12 in ESE 1.8 mph 3.0 mph 72 % 0.00 in
21:50 66.1 °F 56.8 °F 30.12 in ESE 1.5 mph 2.3 mph 72 % 0.00 in
21:55 65.9 °F 57.0 °F 30.12 in SE 2.3 mph 8.1 mph 73 % 0.00 in
22:00 65.6 °F 56.7 °F 30.12 in SE 2.1 mph 4.0 mph 73 % 0.00 in
22:06 65.6 °F 56.7 °F 30.12 in SE 2.3 mph 4.6 mph 73 % 0.00 in
22:11 65.4 °F 56.9 °F 30.12 in ESE 1.9 mph 3.5 mph 74 % 0.00 in
22:16 65.3 °F 56.8 °F 30.13 in ESE 1.4 mph 2.3 mph 74 % 0.00 in
22:21 65.2 °F 57.1 °F 30.12 in ESE 1.2 mph 3.5 mph 75 % 0.00 in
22:26 65.1 °F 57.0 °F 30.13 in SE 1.1 mph 3.5 mph 75 % 0.00 in
22:31 64.9 °F 56.8 °F 30.12 in ESE 0.9 mph 3.5 mph 75 % 0.00 in
22:36 64.8 °F 57.1 °F 30.12 in SE 1.9 mph 3.5 mph 76 % 0.00 in
22:41 64.7 °F 57.0 °F 30.13 in ESE 0.1 mph 1.2 mph 76 % 0.00 in
22:46 64.5 °F 56.8 °F 30.13 in ESE 0.5 mph 3.5 mph 76 % 0.00 in
22:51 64.3 °F 56.9 °F 30.12 in Calm   1.2 mph 77 % 0.00 in
22:57 64.1 °F 57.1 °F 30.12 in Calm   1.2 mph 78 % 0.00 in
23:02 64.0 °F 57.0 °F 30.13 in Calm     78 % 0.00 in
23:07 63.8 °F 57.2 °F 30.12 in SSE 0.3 mph 1.2 mph 79 % 0.00 in
23:17 63.5 °F 56.9 °F 30.13 in SSE 0.3 mph 1.2 mph 79 % 0.00 in
23:22 63.3 °F 57.0 °F 30.13 in SSE 0.8 mph 2.0 mph 80 % 0.00 in
23:27 63.3 °F 57.4 °F 30.13 in ESE 0.8 mph 2.3 mph 81 % 0.00 in
23:32 63.2 °F 57.6 °F 30.13 in East 1.2 mph 2.3 mph 82 % 0.00 in
23:37 63.1 °F 57.5 °F 30.13 in ENE 0.1 mph 1.2 mph 82 % 0.00 in
23:42 63.1 °F 57.9 °F 30.14 in ENE 0.7 mph 2.3 mph 83 % 0.00 in
23:48 63.0 °F 57.8 °F 30.14 in ENE 1.0 mph 2.3 mph 83 % 0.00 in
23:58 62.9 °F 58.0 °F 30.13 in ENE 0.3 mph 1.2 mph 84 % 0.00 in
Crab Meadow Weather
Compliments of Weather Underground - 2.75 mb

Script developed by  Jim McMurry - jmcmurry@mwt.net Adapted for the template by  Wim van der Kuil - Leuven-Template.eu

Recycling: Americans use 85,000,000 tons of paper a year; about 680 pounds per person.